Location: Bessat
(45.8735°N, 1.9924°E)
Time: 20:35:21
(UTC+00:00)

Meteor 1-20 Rocket - Pass Details

Date: 11 May 2021
Orbit: 818 x 893 km, 81.2° (Epoch: 21 June)

Event Time Altitude Azimuth Distance (km) Brightness Sun altitude
Rises 20:02:40 0° 349° (N) 3,435 8.2 -8.2°
Reaches altitude 10° 20:05:07 10° 350° (N) 2,484 7.4 -8.6°
Maximum altitude 20:10:45 83° 79° (E) 848 4.2 -9.3°
Drops below altitude 10° 20:16:15 10° 168° (SSE) 2,423 6.1 -10.1°
Enters shadow 20:17:18 - 169° (SSE) 2,830 6.5 -10.2°
